Regional Weather Roundup
Issued by NWS New Orleans/Baton Rouge, LA

Home | Current Version | Previous Version | Text Only | Print | Product List | Glossary On
Versions: 1 2 3 4 5 6 7 8 9 10 11 12 13 14 15 16 17 18 19 20 21 22 23 24 25 26 27 28 29 30 31 32 33 34 35 36 37 38 39 40 41 42 43 44 45 46 47 48 49 50
000
ASUS44 KLIX 271611
RWRLIX
NEW ORLEANS REGIONAL WEATHER ROUNDUP
NATIONAL WEATHER SERVICE NEW ORLEANS LA
1100 AM CDT SAT AUG 27 2016

NOTE: "FAIR" INDICATES FEW OR NO CLOUDS BELOW 12,000 FEET WITH NO
      SIGNIFICANT WEATHER AND/OR OBSTRUCTIONS TO VISIBILITY.
      SKY/WX - SKY CONDITION AND SIGNIFICANT WEATHER.
      TMP - AIR TEMPERATURE.     DP    - DEWPOINT TEMPERATURE.
      RH  - RELATIVE HUMIDITY.   PRES  - PRESSURE.
      HI  - HEAT INDEX.          WCI   - WIND CHILL INDEX.

*  THESE STATIONS ARE NOT NWS OR FAA STATIONS AND ARE NOT UNDER
   NWS QUALITY CONTROL.

LAZ038-040-048-061>063-065>067-069-271700-
SOUTHEAST LOUISIANA

CITY           SKY/WX    TMP DP  RH WIND       PRES   REMARKS
N.O. AUDUBON     N/A     87  78  74 MISG        N/A  HX  99
N.O. INTL ARPT CLOUDY    86  78  77 NE8       29.99S HX  98
N.O. LAKEFRONT CLOUDY    84  76  76 E9        30.00R THUNDER
N.O. DOWNTOWN* PTSUNNY   83  74  74 VRB6      30.00S THUNDER
RESERVE*         N/A     85  78  80 NE6       29.99S HX  97
SLIDELL        PTSUNNY   84  75  74 E6        30.00R
BATON ROUGE    PTSUNNY   86  77  74 NE8       30.00F HX  97
BOOTHVILLE     CLOUDY    86  76  71 E9        29.98S HX  96
BELLE CHASSE   CLOUDY    84  77  79 NE10      29.99R THUNDER
BOGALUSA*        N/A     89  70  53 E8        30.03S
GALLIANO*      MOSUNNY   85  83  94 N3        29.98S HX 102
NEW ROADS*       N/A     83  75  76 E5        30.01F
GONZALES*        N/A     81  77  86 CALM      29.99S
HAMMOND*       PTSUNNY   90  73  58 NE6       30.00S HX  98
HOUMA*         PTSUNNY   81  79  94 N5        29.98F
PORT FOURCHON* SUNNY     84  77  79 E6        29.98S

$$

MSZ070-080>082-271700-
SOUTHERN MISSISSIPPI

CITY           SKY/WX    TMP DP  RH WIND       PRES   REMARKS
MCCOMB         SUNNY     87  70  56 VRB6      30.03F
GULFPORT       SUNNY     89  74  60 NE9       29.98F HX  98
BILOXI         SUNNY     90  73  58 NE8       29.99S HX  98
PASCAGOULA     SUNNY     89  75  63 E7        29.99F HX  99
STENNIS ARPT*  MOSUNNY   88  70  55 NE7       29.99F

$$

COASTAL OBSERVATIONS
LAKE AND NEARSHORE STATIONS

STATION/POSITION TIME  TEMP    WIND        PRES    WAVE
                       AIR SEA DIR/SP/G            HT/PER
                 (UTC) (F)     (DEG/KT/KT) (MB)    (FT/S)
PASCAGOULA       1500   86      70/ 13/ 16 1015.1
WAVELAND YACHT   1500   84 85   70/  9/ 11 1015.8
GRAND ISLE       1500   84 85   80/  5/  7 1015.0
SOUTHWEST PASS   1500           90/  8/  9   N/A
NEW CANAL        1500   82 86   60/ 12/ 13 1014.7
SHELL BEACH      1500   84 86   60/ 14/ 16 1015.6

OFFSHORE STATIONS

STATION/POSITION TIME  TEMP    WIND        PRES    WAVE
                       AIR SEA DIR/SP/G            HT/PER
                 (UTC) (F)     (DEG/KT/KT) (MB)    (FT/S)
64 S DAUPHIN ISL 1500   83 86   80/  8/ 10 1014.5

$$




USA.gov is the U.S. government's official web portal to all federal, state and local government web resources and services.